EW8255 Weather Reports


time (UTC)temp
C
wind
direction
speed
KPH
gust
KPH
rain 1hr
cm
rain 24hr
cm
rain mn
cm
humidity
%
barometer
mb
20260505101521 9 323 0.0 8.0 0.00 0.00 0.00 97 1021.4
20260505100024 8 320 1.6 9.7 0.00 0.00 0.00 97 1021.6
20260505094519 8 282 0.0 6.4 0.00 0.00 0.00 97 1021.6
20260505093018 9 341 1.6 6.4 0.00 0.00 0.00 96 1021.6
20260505091517 8 322 0.0 4.8 0.00 0.00 0.00 96 1021.6
20260505090016 8 297 1.6 4.8 0.00 0.00 0.00 96 1021.6
20260505084534 8 288 1.6 4.8 0.00 0.00 0.00 96 1021.6
20260505083013 8 307 1.6 6.4 0.00 0.00 0.00 95 1021.4
20260505081517 9 314 0.0 1.6 0.00 0.00 0.00 95 1021.3
20260505080009 9 309 0.0 3.2 0.00 0.00 0.00 94 1021.2
20260505074509 9 340 0.0 1.6 0.00 0.00 0.00 94 1021.1
20260505073007 9 314 0.0 3.2 0.00 0.00 0.00 94 1021.0
20260505071505 9 295 1.6 4.8 0.00 0.00 0.00 93 1020.9
20260505070004 9 288 1.6 4.8 0.00 0.00 0.00 92 1020.9
20260505064503 10 322 0.0 4.8 0.00 0.00 0.00 91 1020.6
20260505063002 10 281 1.6 4.8 0.00 0.00 0.00 90 1020.5
20260505061600 10 299 0.0 6.4 0.00 0.00 0.00 89 1020.4
20260505060059 10 272 0.0 4.8 0.00 0.00 0.00 88 1020.4
20260505054557 10 315 3.2 6.4 0.00 0.00 0.00 87 1020.1
20260505053114 10 253 1.6 6.4 0.00 0.00 0.00 87 1019.9
20260505051553 10 303 1.6 8.0 0.00 0.00 0.00 86 1019.8
20260505041548 10 328 3.2 9.7 0.00 0.00 0.00 86 1019.4
20260505040046 10 352 1.6 11.3 0.00 0.00 0.00 85 1019.3
20260505034601 10 233 1.6 12.9 0.00 0.00 0.00 85 1019.2
20260505033051 11 327 4.8 9.7 0.00 0.00 0.00 85 1019.1
20260505031542 11 310 3.2 11.3 0.00 0.00 0.00 85 1019.1
20260505030040 10 167 3.2 9.7 0.00 0.00 0.00 87 1019.3
20260505024539 10 176 3.2 9.7 0.00 0.00 0.00 89 1019.4
20260505023043 10 312 1.6 9.7 0.00 0.00 0.00 91 1019.5
20260505021537 10 354 0.0 9.7 0.00 0.00 0.00 90 1019.5
20260505020034 10 321 3.2 8.0 0.00 0.00 0.00 92 1019.5
20260505014531 10 318 3.2 9.7 0.00 0.00 0.00 93 1019.5
20260505013029 10 293 0.0 12.9 0.00 0.00 0.00 95 1019.6
20260505011546 9 320 1.6 8.0 0.00 0.00 0.00 95 1019.7
20260505010026 9 319 3.2 6.4 0.00 0.00 0.00 95 1019.6
20260505004523 9 222 1.6 8.0 0.00 0.00 0.00 95 1019.5
20260505003019 9 266 1.6 11.3 0.00 0.00 0.00 96 1019.3
20260505001518 8 229 1.6 6.4 0.00 0.00 0.00 96 1019.1
20260505000016 8 310 0.0 6.4 0.00 0.00 0.00 96 1019.1
20260504234514 8 141 1.6 9.7 0.00 0.00 0.00 96 1019.1
20260504233011 8 245 1.6 11.3 0.00 0.00 0.00 97 1018.9
20260504231513 8 243 1.6 8.0 0.00 0.00 0.00 97 1018.8
20260504230009 8 300 1.6 8.0 0.00 0.00 0.00 97 1018.6
20260504224512 7 293 3.2 12.9 0.00 0.00 0.00 97 1018.6
20260504223005 8 324 1.6 9.7 0.00 0.00 0.00 97 1018.4
20260504221504 7 283 3.2 9.7 0.00 0.00 0.00 97 1018.2
20260504220001 7 246 1.6 8.0 0.00 0.00 0.00 97 1017.9
20260504214608 8 320 1.6 8.0 0.00 0.00 0.00 97 1017.7
20260504213056 8 314 1.6 9.7 0.00 0.00 0.00 97 1017.3
20260504211554 8 232 1.6 8.0 0.00 0.00 0.00 97 1017.0
20260504210055 8 300 3.2 9.7 0.00 0.00 0.00 97 1016.8
20260504204553 8 323 1.6 8.0 0.00 0.00 0.00 97 1016.5
20260504203050 8 305 3.2 9.7 0.00 0.00 0.00 97 1016.2
20260504201545 8 304 1.6 9.7 0.00 0.00 0.00 97 1015.9
20260504200042 8 308 1.6 6.4 0.00 0.00 0.00 97 1015.8
20260504194545 8 288 3.2 6.4 0.00 0.00 0.00 97 1015.6
20260504193038 8 342 1.6 12.9 0.00 0.00 0.00 97 1015.6
20260504191535 8 284 3.2 11.3 0.00 0.00 0.00 97 1015.5
20260504190034 8 269 0.0 9.7 0.00 0.00 0.00 97 1015.2
20260504184531 8 276 1.6 9.7 0.00 0.00 0.00 97 1015.0
20260504183029 8 259 1.6 8.0 0.00 0.00 0.00 97 1014.8
20260504181527 8 276 3.2 14.5 0.00 0.00 0.00 97 1014.7
20260504180024 8 304 3.2 11.3 0.00 0.00 0.00 97 1014.5
20260504174524 8 286 1.6 8.0 0.00 0.00 0.00 97 1014.4
20260504173022 8 244 3.2 11.3 0.00 0.00 0.00 97 1014.3
20260504171524 8 216 0.0 12.9 0.00 0.00 0.00 97 1014.2